Weather in Ust-Sakhray

Russia / Republic of Adygea     44°12′29″N   40°16′47″E
temp.,
°C
wind,
m/s
gust,
m/s
humid.,
%
clouds,
%
prec.,
mm/h
press.,
hPa
HPBL,
m
24 may, tue
tue2400:00+6s2191100 0.0 100920
03:00+7ssw228699 0.0 100933
06:00+8sw1285100 0.2 101095
09:00+10sw1274100 0.6 1010565
12:00+13wsw127095 0.8 1010994
15:00+9nw1296100 3.1 1012213
18:00+10nnw239389 2.6 1013343
21:00+8wnw119885 4.0 101630
25 may, wed
wed2500:00+7ssw119694 0.0 101728
03:00+6ssw2295100 0.2 101852
06:00+7s239582 0.3 1019101
09:00+12nw136033 0.3 10191177
12:00+15nw334291 0.6 10182129
15:00+14nnw3356100 0.8 10201503
18:00+12nnw127278 0.3 1021391
21:00+8s228748 0.4 102318
26 may, thu
thu2600:00+7s228626 0.0 102233
03:00+5s229120 0.0 102428
06:00+7s228126 0.0 102367
09:00+15nne1151100 0.0 10211466
12:00+18n333826 0.0 10202116
15:00+19n343782 0.0 10192152
18:00+16n245999 0.0 1019759
21:00+10s118969 0.0 102212
27 may, fri
fri2700:00+8s229299 0.0 102131
03:00+8s22836 0.0 102126
06:00+10s226055 0.0 102162
09:00+17nnw224079 0.0 1020802
12:00+20nnw33311 0.0 10191293
15:00+21nnw34330 0.0 10181826
18:00+17nne22575 0.0 1018655
21:00+10sse22920 0.0 102019
28 may, sat
sat2800:00+9s22860 0.0 101928
03:00+9s22780 0.0 101830
06:00+11s22680 0.0 101745
09:00+20n11450 0.0 1015683
12:00+23n33380 0.0 10141850
15:00+23nne324392 0.0 10131849
18:00+21ene34648 0.0 1014633
21:00+14sse22930 0.1 101537